Location: Burgberg
(50.1428°N, 11.0671°E)
Time: 19:25:04
(UTC+00:00)

STARLINK-81 - Pass Details

Date: 26 January 2020
Orbit: 528 x 531 km, 53.0° (Epoch: 21 February)

Event Time Altitude Azimuth Distance (km) Brightness Sun altitude
Exits shadow 03:25:28 16° 82° (E) 1,440 6.4 -33.9°
Drops below altitude 10° 03:26:23 10° 76° (ENE) 1,770 7.0 -33.7°
Enters shadow 04:25:51 -64° 248° (WSW) 12,018 10.4 -24.3°
Maximum altitude 05:01:34 73° 344° (NNW) 554 3.5 -18.5°
